Showing default

GONETS D1 7, 27058

Orbit data source: Space-Track

GONETS D1 7, 27058 is a payload satellite owned by Gonets (CIS) in LEO that was launched on Fri, 28 Dec 2001 UTC via a TSIKLON-3 launch vehicle from the Plesetsk Missile And Space Complex (PKMTR). Payload-class satellites include a variety of spacecraft equipped with specific instruments for various scientific and technological missions. These include communications satellites like Starlink; space stations such as the ISS; scientific satellites like the Hubble; Earth observation satellites from companies like Planet Labs, Umbra, and HawkEye 360; GPS; miniature CubeSats for education and research; and military/defense satellites.

Loading next visibility...
Identifier
27058, 2001-058D
Orbit
LEO
Country
Flag of CISCIS
Related business
Manufacturer
NPO PM
Mission
Non-operational Civil Communications
Bus & Motor
STRELA-3, Unknown motor
Mass
225 kg wet, 225 kg dry
Launch date (UTC)
2001-12-28 (24 years ago)
Launch vehicle
TSIKLON-3
Launch site
Plesetsk Missile And Space Complex (PKMTR)
Object type
Payload
Rocket body
Debris
Shape & HBR
Cyl + 1 Ant, 3.5 m
Radar Cross Section
1.798 m², Medium (>0.1 m² and < 1m²)

Expand to show TLE details & history
Last TLE update: 7 hours ago

TLE from 7 hours ago
0 GONETS D1 7
1 27058U 01058D   25311.17619360  .00000025  00000-0  83308-4 0  9994
2 27058  82.5360 344.2835 0004009 128.0799 232.0654 12.62080039 98983
Epoch: 2025-11-07T04:13Z
TLE epoch observation values (Epoch: 2025-11-07T04:13:43.127Z)
Latitude
0.00001°
Longitude
-125.77011°
Altitude
1,419.021 km
Speed
7.15 km/s
True Right ascension
22h 57m 08s
True Declination
0° 00' 00"
Sunlit
Object was in daylight at epoch
Visualization orbit readout
Latitude
Unknown
Longitude
Unknown
Altitude
Unknown
Speed
Unknown
Apparent Right ascension
Unknown
Apparent Declination
Unknown
Sunlit
N/A
Visualization observer readout
Local Sidereal Time
07:18:38
Azimuth
Unknown
Elevation
Unknown
Doppler factor
Unknown
Orbital elements
Apogee altitude
1,414.816 km
Perigee altitude
1,408.57 km
Semi-major axis
7,789.83 km
Eccentricity
0.0004
Inclination
82.536°
RAAN
344.2835°
Arg. of periapsis
128.0799°
True anomaly
232.02918°
Mean anomaly
232.0654°
Eccentric anomaly
232.04729°
Mean motion
3.15683 °/min
Orbital period
114.04 mins
BSTAR
0.000083308
Loading maneuver chart data...
Computing Atmospheric mass density...
Loading historical data...
Loading historical data...
Loading historical data...
Loading historical data...
Loading historical data...
Loading historical data...
Loading historical data...

Documentation

Showing up to 5 results
|